Location: Wildlife_Club
(35.6000°N, 81.4330°W)
Time: 21:47:49
(UTC-04:00)

A-11 Canister half - Pass Details

Date: 23 August 2020
Orbit: 1514 x 1686 km, 47.2° (Epoch: 26 September)

Event Time Altitude Azimuth Distance (km) Brightness Sun altitude
Rises 00:32:15 0° 291° (WNW) 4,864 12.0 -41.3°
Reaches altitude 10° 00:36:46 10° 273° (W) 3,901 11.3 -41.6°
Enters shadow 00:40:09 16° 254° (WSW) 3,455 10.8 -41.8°
